Time,TemperatureF,DewpointF,PressureIn,WindDirection,WindDirectionDegrees,WindSpeedMPH,WindSpeedGustMPH,Humidity,HourlyPrecipIn,Conditions,Clouds,dailyrainin,SoftwareType,DateUTC
2013-06-06 00:00:00,62.4,61.2,29.94,SSE,153,0.0,10.0,96,0.00,,,0.00,Wunderground v.1.15,2013-06-06 04:00:00,
2013-06-06 00:05:00,62.4,61.2,29.94,East,95,0.0,10.0,96,0.00,,,0.00,Wunderground v.1.15,2013-06-06 04:05:00,
2013-06-06 00:10:00,62.4,61.2,29.94,East,94,0.0,10.0,96,0.00,,,0.00,Wunderground v.1.15,2013-06-06 04:10:00,
2013-06-06 00:15:00,62.4,61.2,29.94,SE,132,0.0,10.0,96,0.00,,,0.00,Wunderground v.1.15,2013-06-06 04:15:00,
2013-06-06 00:20:00,62.4,61.2,29.94,SE,132,0.0,10.0,96,0.00,,,0.00,Wunderground v.1.15,2013-06-06 04:20:00,
2013-06-06 00:30:00,62.5,61.6,29.93,East,100,0.0,10.0,97,0.00,,,0.01,Wunderground v.1.15,2013-06-06 04:30:00,
2013-06-06 00:35:00,62.7,61.8,29.92,ESE,112,1.0,10.0,97,0.06,,,0.02,Wunderground v.1.15,2013-06-06 04:35:00,
2013-06-06 00:40:00,62.7,61.8,29.92,ESE,111,2.0,10.0,97,0.23,,,0.04,Wunderground v.1.15,2013-06-06 04:40:00,
2013-06-06 00:45:00,62.7,61.5,29.91,SSE,148,2.0,10.0,96,0.16,,,0.05,Wunderground v.1.15,2013-06-06 04:45:00,
2013-06-06 00:50:00,62.7,61.5,29.91,ESE,117,2.0,10.0,96,0.10,,,0.06,Wunderground v.1.15,2013-06-06 04:50:00,
2013-06-06 00:55:00,62.6,61.4,29.91,SW,224,2.0,10.0,96,0.09,,,0.06,Wunderground v.1.15,2013-06-06 04:55:00,
2013-06-06 01:00:00,62.6,61.4,29.91,ESE,122,2.0,10.0,96,0.05,,,0.06,Wunderground v.1.15,2013-06-06 05:00:00,
2013-06-06 06:15:00,62.2,61.3,29.84,South,169,0.0,10.0,97,0.00,,,0.08,Wunderground v.1.15,2013-06-06 10:15:00,
2013-06-06 06:25:00,62.2,61.3,29.84,SE,133,0.0,10.0,97,0.00,,,0.08,Wunderground v.1.15,2013-06-06 10:25:00,
2013-06-06 06:30:00,62.2,61.3,29.84,SE,134,0.0,10.0,97,0.00,,,0.08,Wunderground v.1.15,2013-06-06 10:30:00,
2013-06-06 06:35:00,62.2,61.3,29.84,SSW,204,0.0,10.0,97,0.00,,,0.08,Wunderground v.1.15,2013-06-06 10:35:00,
2013-06-06 06:40:00,62.2,61.3,29.83,SE,146,0.0,10.0,97,0.00,,,0.08,Wunderground v.1.15,2013-06-06 10:40:00,
2013-06-06 06:50:00,62.2,61.3,29.84,SSE,153,0.0,10.0,97,0.00,,,0.08,Wunderground v.1.15,2013-06-06 10:50:00,
2013-06-06 06:55:00,62.2,61.3,29.84,South,179,1.0,1.0,97,0.00,,,0.08,Wunderground v.1.15,2013-06-06 10:55:00,
2013-06-06 07:00:00,62.2,61.3,29.83,SSE,149,0.0,10.0,97,0.00,,,0.08,Wunderground v.1.15,2013-06-06 11:00:00,
2013-06-06 07:05:00,62.2,61.3,29.83,SSE,168,0.0,10.0,97,0.00,,,0.08,Wunderground v.1.15,2013-06-06 11:05:00,
2013-06-06 07:10:00,62.2,61.3,29.84,SSE,155,0.0,10.0,97,0.00,,,0.08,Wunderground v.1.15,2013-06-06 11:10:00,
2013-06-06 07:15:00,62.3,61.4,29.84,SSE,165,0.0,10.0,97,0.00,,,0.08,Wunderground v.1.15,2013-06-06 11:15:00,
2013-06-06 07:20:00,62.3,61.4,29.84,SSE,152,0.0,10.0,97,0.00,,,0.08,Wunderground v.1.15,2013-06-06 11:20:00,
2013-06-06 07:25:00,62.4,61.5,29.83,SSE,152,0.0,10.0,97,0.00,,,0.08,Wunderground v.1.15,2013-06-06 11:25:00,
2013-06-06 07:30:00,62.4,61.5,29.84,SSE,156,0.0,10.0,97,0.00,,,0.08,Wunderground v.1.15,2013-06-06 11:30:00,
2013-06-06 07:35:00,62.5,61.6,29.83,SE,129,0.0,10.0,97,0.00,,,0.08,Wunderground v.1.15,2013-06-06 11:35:00,
2013-06-06 07:40:00,62.5,61.6,29.84,SSW,194,0.0,10.0,97,0.00,,,0.08,Wunderground v.1.15,2013-06-06 11:40:00,
2013-06-06 07:45:00,62.5,61.6,29.83,SSE,162,0.0,10.0,97,0.00,,,0.08,Wunderground v.1.15,2013-06-06 11:45:00,
2013-06-06 07:50:00,62.6,61.7,29.83,SSE,157,0.0,10.0,97,0.00,,,0.08,Wunderground v.1.15,2013-06-06 11:50:00,
2013-06-06 07:55:00,62.6,61.7,29.83,SSE,166,0.0,10.0,97,0.00,,,0.08,Wunderground v.1.15,2013-06-06 11:55:00,
2013-06-06 08:00:00,62.7,61.8,29.83,SSE,163,0.0,10.0,97,0.00,,,0.08,Wunderground v.1.15,2013-06-06 12:00:00,
2013-06-06 08:05:00,62.7,61.8,29.83,SSE,152,1.0,10.0,97,0.00,,,0.08,Wunderground v.1.15,2013-06-06 12:05:00,
2013-06-06 08:10:00,62.8,61.9,29.84,SSE,152,0.0,10.0,97,0.00,,,0.08,Wunderground v.1.15,2013-06-06 12:10:00,
2013-06-06 08:20:00,63.0,62.1,29.84,SSE,152,0.0,10.0,97,0.00,,,0.08,Wunderground v.1.15,2013-06-06 12:20:00,
2013-06-06 08:25:00,63.0,62.1,29.84,SSE,151,0.0,10.0,97,0.00,,,0.08,Wunderground v.1.15,2013-06-06 12:25:00,
2013-06-06 08:30:00,63.0,62.1,29.83,SSE,152,0.0,10.0,97,0.00,,,0.08,Wunderground v.1.15,2013-06-06 12:30:00,
2013-06-06 08:35:00,63.0,62.1,29.83,SE,138,0.0,10.0,97,0.00,,,0.08,Wunderground v.1.15,2013-06-06 12:35:00,
2013-06-06 08:40:00,63.0,62.1,29.83,SE,138,0.0,10.0,97,0.00,,,0.08,Wunderground v.1.15,2013-06-06 12:40:00,
2013-06-06 08:45:00,63.1,62.2,29.83,SSE,149,0.0,10.0,97,0.00,,,0.08,Wunderground v.1.15,2013-06-06 12:45:00,
2013-06-06 08:50:00,63.1,62.2,29.83,SSE,149,0.0,10.0,97,0.00,,,0.08,Wunderground v.1.15,2013-06-06 12:50:00,
2013-06-06 08:55:00,63.2,62.3,29.83,SSE,149,0.0,10.0,97,0.00,,,0.08,Wunderground v.1.15,2013-06-06 12:55:00,
2013-06-06 09:00:00,63.2,62.3,29.83,SE,139,0.0,10.0,97,0.00,,,0.08,Wunderground v.1.15,2013-06-06 13:00:00,
2013-06-06 09:05:00,63.2,62.3,29.83,ESE,120,0.0,10.0,97,0.00,,,0.08,Wunderground v.1.15,2013-06-06 13:05:00,
2013-06-06 09:10:00,63.3,62.4,29.84,SE,125,0.0,10.0,97,0.00,,,0.08,Wunderground v.1.15,2013-06-06 13:10:00,
2013-06-06 09:15:00,63.3,62.4,29.84,South,180,0.0,10.0,97,0.00,,,0.08,Wunderground v.1.15,2013-06-06 13:15:00,
2013-06-06 09:20:00,63.5,62.6,29.84,ESE,121,0.0,10.0,97,0.00,,,0.08,Wunderground v.1.15,2013-06-06 13:20:00,
2013-06-06 09:25:00,63.7,62.8,29.84,SSE,164,0.0,10.0,97,0.00,,,0.08,Wunderground v.1.15,2013-06-06 13:25:00,
2013-06-06 09:30:00,63.8,62.9,29.84,WSW,245,0.0,10.0,97,0.00,,,0.08,Wunderground v.1.15,2013-06-06 13:30:00,
2013-06-06 09:40:00,63.8,62.9,29.84,SSE,162,1.0,10.0,97,0.00,,,0.08,Wunderground v.1.15,2013-06-06 13:40:00,
2013-06-06 09:45:00,64.0,63.1,29.84,SE,136,1.0,10.0,97,0.00,,,0.08,Wunderground v.1.15,2013-06-06 13:45:00,
2013-06-06 09:50:00,64.1,63.2,29.84,SSE,158,1.0,1.0,97,0.00,,,0.08,Wunderground v.1.15,2013-06-06 13:50:00,
2013-06-06 09:55:00,64.2,63.3,29.84,ESE,109,1.0,2.0,97,0.00,,,0.08,Wunderground v.1.15,2013-06-06 13:55:00,
2013-06-06 10:00:00,64.2,63.3,29.83,ESE,113,1.0,10.0,97,0.00,,,0.08,Wunderground v.1.15,2013-06-06 14:00:00,
2013-06-06 10:10:00,64.7,63.5,29.83,SSE,152,2.0,2.0,96,0.00,,,0.08,Wunderground v.1.15,2013-06-06 14:10:00,
2013-06-06 10:15:00,64.7,63.2,29.83,SE,132,2.0,10.0,95,0.00,,,0.08,Wunderground v.1.15,2013-06-06 14:15:00,
2013-06-06 10:20:00,64.9,63.4,29.83,ESE,118,2.0,10.0,95,0.00,,,0.08,Wunderground v.1.15,2013-06-06 14:20:00,
2013-06-06 10:30:00,65.1,63.3,29.83,ESE,113,2.0,10.0,94,0.00,,,0.08,Wunderground v.1.15,2013-06-06 14:30:00,
2013-06-06 10:35:00,65.3,63.5,29.83,SE,134,2.0,10.0,94,0.00,,,0.08,Wunderground v.1.15,2013-06-06 14:35:00,
2013-06-06 10:40:00,65.6,63.5,29.83,ESE,108,1.0,10.0,93,0.00,,,0.08,Wunderground v.1.15,2013-06-06 14:40:00,
2013-06-06 10:50:00,66.0,63.6,29.83,ESE,106,2.0,2.0,92,0.00,,,0.08,Wunderground v.1.15,2013-06-06 14:50:00,
2013-06-06 10:55:00,66.2,63.8,29.83,ESE,107,1.0,10.0,92,0.00,,,0.08,Wunderground v.1.15,2013-06-06 14:55:00,
2013-06-06 11:00:00,66.2,63.8,29.83,ESE,123,1.0,10.0,92,0.00,,,0.08,Wunderground v.1.15,2013-06-06 15:00:00,
2013-06-06 11:05:00,66.6,64.2,29.83,East,87,1.0,10.0,92,0.00,,,0.08,Wunderground v.1.15,2013-06-06 15:05:00,
2013-06-06 11:10:00,66.7,64.0,29.83,ESE,112,2.0,10.0,91,0.00,,,0.08,Wunderground v.1.15,2013-06-06 15:10:00,
2013-06-06 11:15:00,66.9,63.9,29.83,ESE,114,2.0,10.0,90,0.00,,,0.08,Wunderground v.1.15,2013-06-06 15:15:00,
2013-06-06 11:20:00,67.2,64.2,29.83,East,87,1.0,1.0,90,0.00,,,0.08,Wunderground v.1.15,2013-06-06 15:20:00,
2013-06-06 11:25:00,67.8,65.1,29.83,East,87,1.0,10.0,91,0.00,,,0.08,Wunderground v.1.15,2013-06-06 15:25:00,
2013-06-06 11:30:00,68.1,64.7,29.83,East,86,1.0,10.0,89,0.00,,,0.08,Wunderground v.1.15,2013-06-06 15:30:00,
2013-06-06 11:40:00,68.8,65.7,29.84,SE,145,1.0,10.0,90,0.00,,,0.08,Wunderground v.1.15,2013-06-06 15:40:00,
2013-06-06 11:45:00,68.7,64.7,29.84,ESE,103,2.0,10.0,87,0.00,,,0.08,Wunderground v.1.15,2013-06-06 15:45:00,
2013-06-06 11:50:00,68.8,64.8,29.84,SW,226,2.0,2.0,87,0.00,,,0.08,Wunderground v.1.15,2013-06-06 15:50:00,
2013-06-06 12:00:00,68.9,64.5,29.84,SSW,208,1.0,10.0,86,0.00,,,0.08,Wunderground v.1.15,2013-06-06 16:00:00,
2013-06-06 12:05:00,68.9,64.5,29.83,East,90,1.0,10.0,86,0.00,,,0.08,Wunderground v.1.15,2013-06-06 16:05:00,
2013-06-06 12:10:00,68.8,64.4,29.83,SE,143,1.0,10.0,86,0.00,,,0.08,Wunderground v.1.15,2013-06-06 16:10:00,
2013-06-06 12:20:00,68.8,64.4,29.83,ESE,116,2.0,2.0,86,0.00,,,0.08,Wunderground v.1.15,2013-06-06 16:20:00,
2013-06-06 12:30:00,68.9,64.5,29.83,SE,143,1.0,1.0,86,0.00,,,0.08,Wunderground v.1.15,2013-06-06 16:30:00,
2013-06-06 12:35:00,69.0,64.6,29.82,ESE,114,1.0,10.0,86,0.00,,,0.08,Wunderground v.1.15,2013-06-06 16:35:00,
2013-06-06 12:40:00,69.0,64.6,29.82,SSW,195,2.0,10.0,86,0.00,,,0.08,Wunderground v.1.15,2013-06-06 16:40:00,
2013-06-06 12:45:00,69.0,64.3,29.82,SE,127,2.0,10.0,85,0.00,,,0.08,Wunderground v.1.15,2013-06-06 16:45:00,
2013-06-06 12:55:00,69.1,64.4,29.82,SSE,162,1.0,10.0,85,0.00,,,0.08,Wunderground v.1.15,2013-06-06 16:55:00,
2013-06-06 13:00:00,69.1,64.4,29.82,ESE,104,1.0,10.0,85,0.00,,,0.08,Wunderground v.1.15,2013-06-06 17:00:00,
2013-06-06 13:05:00,69.2,64.5,29.81,ESE,123,2.0,10.0,85,0.00,,,0.08,Wunderground v.1.15,2013-06-06 17:05:00,
2013-06-06 13:10:00,69.4,64.7,29.81,ESE,104,2.0,2.0,85,0.00,,,0.08,Wunderground v.1.15,2013-06-06 17:10:00,
2013-06-06 13:15:00,69.5,64.8,29.81,ESE,103,1.0,3.0,85,0.00,,,0.08,Wunderground v.1.15,2013-06-06 17:15:00,
2013-06-06 13:20:00,69.8,64.7,29.81,ESE,123,2.0,2.0,84,0.00,,,0.08,Wunderground v.1.15,2013-06-06 17:20:00,
2013-06-06 13:30:00,70.1,65.4,29.81,South,184,1.0,10.0,85,0.00,,,0.08,Wunderground v.1.15,2013-06-06 17:30:00,
2013-06-06 13:35:00,70.2,65.1,29.81,SSE,156,1.0,10.0,84,0.00,,,0.08,Wunderground v.1.15,2013-06-06 17:35:00,
2013-06-06 13:40:00,70.2,65.1,29.80,SE,133,2.0,10.0,84,0.00,,,0.08,Wunderground v.1.15,2013-06-06 17:40:00,
2013-06-06 13:45:00,70.2,65.1,29.80,SSW,203,2.0,10.0,84,0.00,,,0.08,Wunderground v.1.15,2013-06-06 17:45:00,
2013-06-06 13:55:00,70.8,65.7,29.79,SSE,149,2.0,10.0,84,0.00,,,0.08,Wunderground v.1.15,2013-06-06 17:55:00,
2013-06-06 14:00:00,71.6,66.8,29.79,SSE,157,2.0,2.0,85,0.00,,,0.08,Wunderground v.1.15,2013-06-06 18:00:00,
2013-06-06 14:05:00,72.2,67.1,29.79,South,189,1.0,10.0,84,0.00,,,0.08,Wunderground v.1.15,2013-06-06 18:05:00,
2013-06-06 14:15:00,71.6,65.5,29.78,SE,124,2.0,10.0,81,0.00,,,0.08,Wunderground v.1.15,2013-06-06 18:15:00,
2013-06-06 14:20:00,71.3,65.2,29.78,ESE,107,2.0,2.0,81,0.00,,,0.08,Wunderground v.1.15,2013-06-06 18:20:00,
2013-06-06 14:25:00,71.4,65.3,29.78,SSW,208,2.0,10.0,81,0.00,,,0.08,Wunderground v.1.15,2013-06-06 18:25:00,
2013-06-06 14:30:00,71.7,65.9,29.78,ESE,106,2.0,2.0,82,0.00,,,0.08,Wunderground v.1.15,2013-06-06 18:30:00,
2013-06-06 14:35:00,71.6,66.2,29.78,ESE,107,2.0,10.0,83,0.00,,,0.08,Wunderground v.1.15,2013-06-06 18:35:00,
2013-06-06 14:40:00,71.5,66.4,29.78,SE,128,2.0,2.0,84,0.00,,,0.08,Wunderground v.1.15,2013-06-06 18:40:00,
2013-06-06 14:45:00,71.6,66.5,29.78,SE,129,2.0,10.0,84,0.00,,,0.08,Wunderground v.1.15,2013-06-06 18:45:00,
2013-06-06 14:55:00,71.5,65.7,29.78,ESE,106,2.0,10.0,82,0.00,,,0.08,Wunderground v.1.15,2013-06-06 18:55:00,
2013-06-06 15:00:00,71.4,65.6,29.77,East,96,3.0,10.0,82,0.00,,,0.08,Wunderground v.1.15,2013-06-06 19:00:00,
2013-06-06 15:05:00,71.4,65.6,29.77,SE,136,3.0,10.0,82,0.00,,,0.08,Wunderground v.1.15,2013-06-06 19:05:00,
2013-06-06 15:10:00,71.4,65.6,29.77,East,98,2.0,10.0,82,0.00,,,0.08,Wunderground v.1.15,2013-06-06 19:10:00,
2013-06-06 15:15:00,71.4,65.6,29.77,South,187,2.0,10.0,82,0.00,,,0.08,Wunderground v.1.15,2013-06-06 19:15:00,
2013-06-06 15:20:00,71.7,66.3,29.77,SE,128,2.0,2.0,83,0.00,,,0.08,Wunderground v.1.15,2013-06-06 19:20:00,
2013-06-06 15:25:00,71.9,65.4,29.77,ESE,114,2.0,10.0,80,0.00,,,0.08,Wunderground v.1.15,2013-06-06 19:25:00,
2013-06-06 15:30:00,71.8,65.7,29.77,East,98,2.0,2.0,81,0.00,,,0.08,Wunderground v.1.15,2013-06-06 19:30:00,
2013-06-06 15:40:00,72.1,66.3,29.76,East,97,1.0,10.0,82,0.00,,,0.08,Wunderground v.1.15,2013-06-06 19:40:00,
2013-06-06 15:45:00,71.8,65.7,29.77,East,99,2.0,10.0,81,0.00,,,0.08,Wunderground v.1.15,2013-06-06 19:45:00,
2013-06-06 15:50:00,71.5,65.0,29.77,South,183,2.0,10.0,80,0.00,,,0.08,Wunderground v.1.15,2013-06-06 19:50:00,
2013-06-06 15:55:00,71.5,65.7,29.77,SSW,205,1.0,10.0,82,0.00,,,0.08,Wunderground v.1.15,2013-06-06 19:55:00,
2013-06-06 16:05:00,71.2,65.4,29.76,ENE,59,2.0,10.0,82,0.00,,,0.08,Wunderground v.1.15,2013-06-06 20:05:00,
2013-06-06 16:10:00,71.1,65.7,29.76,SSW,197,2.0,2.0,83,0.00,,,0.08,Wunderground v.1.15,2013-06-06 20:10:00,
2013-06-06 16:15:00,71.1,65.7,29.76,SE,128,2.0,10.0,83,0.00,,,0.08,Wunderground v.1.15,2013-06-06 20:15:00,
2013-06-06 16:20:00,71.0,65.2,29.76,ESE,105,2.0,10.0,82,0.00,,,0.08,Wunderground v.1.15,2013-06-06 20:20:00,
2013-06-06 16:25:00,71.0,65.2,29.76,East,94,2.0,10.0,82,0.00,,,0.08,Wunderground v.1.15,2013-06-06 20:25:00,
2013-06-06 16:30:00,71.1,65.7,29.76,East,93,2.0,10.0,83,0.00,,,0.08,Wunderground v.1.15,2013-06-06 20:30:00,
2013-06-06 16:35:00,71.2,65.4,29.75,SSE,160,2.0,10.0,82,0.00,,,0.08,Wunderground v.1.15,2013-06-06 20:35:00,
2013-06-06 16:40:00,71.2,65.8,29.75,ESE,108,2.0,10.0,83,0.00,,,0.08,Wunderground v.1.15,2013-06-06 20:40:00,
2013-06-06 16:45:00,71.0,65.9,29.75,South,183,2.0,10.0,84,0.00,,,0.08,Wunderground v.1.15,2013-06-06 20:45:00,
2013-06-06 16:50:00,70.6,65.9,29.76,East,92,3.0,10.0,85,0.00,,,0.08,Wunderground v.1.15,2013-06-06 20:50:00,
2013-06-06 16:55:00,70.0,65.6,29.76,SSE,152,3.0,10.0,86,0.00,,,0.08,Wunderground v.1.15,2013-06-06 20:55:00,
2013-06-06 17:00:00,69.7,65.7,29.76,ESE,116,2.0,2.0,87,0.00,,,0.08,Wunderground v.1.15,2013-06-06 21:00:00,
2013-06-06 17:05:00,69.5,65.8,29.75,ESE,110,2.0,10.0,88,0.00,,,0.08,Wunderground v.1.15,2013-06-06 21:05:00,
2013-06-06 17:10:00,69.6,65.6,29.75,SE,144,2.0,10.0,87,0.00,,,0.08,Wunderground v.1.15,2013-06-06 21:10:00,
2013-06-06 17:15:00,69.7,66.0,29.75,East,82,2.0,10.0,88,0.00,,,0.08,Wunderground v.1.15,2013-06-06 21:15:00,
2013-06-06 17:25:00,69.9,65.5,29.75,South,179,2.0,10.0,86,0.00,,,0.08,Wunderground v.1.15,2013-06-06 21:25:00,
2013-06-06 17:30:00,70.1,65.7,29.75,SSW,197,2.0,2.0,86,0.00,,,0.08,Wunderground v.1.15,2013-06-06 21:30:00,
2013-06-06 17:35:00,70.1,65.7,29.75,SSE,166,2.0,3.0,86,0.00,,,0.08,Wunderground v.1.15,2013-06-06 21:35:00,
2013-06-06 17:45:00,70.1,65.4,29.74,SSE,149,2.0,10.0,85,0.00,,,0.08,Wunderground v.1.15,2013-06-06 21:45:00,
2013-06-06 17:50:00,70.0,65.3,29.74,SE,132,2.0,10.0,85,0.00,,,0.08,Wunderground v.1.15,2013-06-06 21:50:00,
2013-06-06 18:00:00,70.0,65.6,29.74,SSE,150,2.0,10.0,86,0.00,,,0.08,Wunderground v.1.15,2013-06-06 22:00:00,
2013-06-06 18:05:00,70.0,65.6,29.74,South,176,2.0,10.0,86,0.00,,,0.08,Wunderground v.1.15,2013-06-06 22:05:00,
2013-06-06 18:10:00,70.0,66.0,29.74,SW,229,2.0,10.0,87,0.00,,,0.08,Wunderground v.1.15,2013-06-06 22:10:00,
2013-06-06 18:15:00,69.9,65.5,29.74,SE,128,2.0,10.0,86,0.00,,,0.08,Wunderground v.1.15,2013-06-06 22:15:00,
2013-06-06 18:20:00,69.9,65.5,29.74,East,96,2.0,10.0,86,0.00,,,0.08,Wunderground v.1.15,2013-06-06 22:20:00,
2013-06-06 18:25:00,70.0,66.0,29.74,ESE,113,2.0,10.0,87,0.00,,,0.08,Wunderground v.1.15,2013-06-06 22:25:00,
2013-06-06 18:30:00,70.0,65.6,29.74,SE,144,2.0,2.0,86,0.00,,,0.08,Wunderground v.1.15,2013-06-06 22:30:00,
2013-06-06 18:35:00,69.9,65.5,29.74,SE,141,2.0,10.0,86,0.00,,,0.08,Wunderground v.1.15,2013-06-06 22:35:00,
2013-06-06 18:40:00,69.9,65.5,29.73,ESE,120,2.0,10.0,86,0.00,,,0.08,Wunderground v.1.15,2013-06-06 22:40:00,
2013-06-06 18:45:00,69.8,65.4,29.73,SSE,167,2.0,10.0,86,0.00,,,0.08,Wunderground v.1.15,2013-06-06 22:45:00,
2013-06-06 18:50:00,69.7,65.7,29.73,SE,134,2.0,10.0,87,0.00,,,0.08,Wunderground v.1.15,2013-06-06 22:50:00,
2013-06-06 18:55:00,69.6,65.6,29.73,SE,125,2.0,10.0,87,0.00,,,0.08,Wunderground v.1.15,2013-06-06 22:55:00,
2013-06-06 19:00:00,69.4,65.7,29.74,SSE,167,3.0,3.0,88,0.00,,,0.08,Wunderground v.1.15,2013-06-06 23:00:00,
2013-06-06 19:05:00,69.2,65.5,29.74,South,176,3.0,10.0,88,0.00,,,0.08,Wunderground v.1.15,2013-06-06 23:05:00,
2013-06-06 19:15:00,68.8,65.4,29.74,ESE,111,2.0,10.0,89,0.00,,,0.08,Wunderground v.1.15,2013-06-06 23:15:00,
2013-06-06 19:25:00,68.5,65.1,29.74,SE,136,2.0,10.0,89,0.00,,,0.08,Wunderground v.1.15,2013-06-06 23:25:00,
2013-06-06 19:30:00,68.4,65.0,29.74,SSE,152,2.0,10.0,89,0.00,,,0.08,Wunderground v.1.15,2013-06-06 23:30:00,
2013-06-06 19:40:00,68.2,65.2,29.74,SSE,154,2.0,10.0,90,0.00,,,0.08,Wunderground v.1.15,2013-06-06 23:40:00,
2013-06-06 19:45:00,68.1,65.1,29.74,East,91,2.0,10.0,90,0.00,,,0.08,Wunderground v.1.15,2013-06-06 23:45:00,
2013-06-06 19:55:00,67.9,65.2,29.74,SE,143,1.0,10.0,91,0.00,,,0.08,Wunderground v.1.15,2013-06-06 23:55:00,
2013-06-06 20:00:00,67.8,65.1,29.74,SE,141,1.0,10.0,91,0.00,,,0.08,Wunderground v.1.15,2013-06-07 00:00:00,
2013-06-06 20:05:00,67.7,65.0,29.74,ESE,110,1.0,10.0,91,0.00,,,0.08,Wunderground v.1.15,2013-06-07 00:05:00,
2013-06-06 20:10:00,67.5,64.8,29.74,South,183,1.0,10.0,91,0.00,,,0.08,Wunderground v.1.15,2013-06-07 00:10:00,
2013-06-06 20:15:00,67.5,64.8,29.74,South,174,2.0,10.0,91,0.00,,,0.08,Wunderground v.1.15,2013-06-07 00:15:00,
2013-06-06 20:20:00,67.3,64.6,29.74,South,190,2.0,10.0,91,0.00,,,0.08,Wunderground v.1.15,2013-06-07 00:20:00,
2013-06-06 20:25:00,67.2,64.5,29.74,SE,125,2.0,10.0,91,0.00,,,0.08,Wunderground v.1.15,2013-06-07 00:25:00,
2013-06-06 20:30:00,67.1,64.7,29.74,SE,129,2.0,2.0,92,0.00,,,0.08,Wunderground v.1.15,2013-06-07 00:30:00,
2013-06-06 20:40:00,66.9,64.5,29.74,ESE,121,2.0,10.0,92,0.00,,,0.08,Wunderground v.1.15,2013-06-07 00:40:00,
2013-06-06 20:45:00,66.8,64.4,29.74,SSW,205,2.0,10.0,92,0.00,,,0.08,Wunderground v.1.15,2013-06-07 00:45:00,
2013-06-06 20:50:00,66.8,64.4,29.74,SE,132,2.0,2.0,92,0.00,,,0.08,Wunderground v.1.15,2013-06-07 00:50:00,
2013-06-06 20:55:00,66.7,64.6,29.74,SSW,195,2.0,10.0,93,0.00,,,0.08,Wunderground v.1.15,2013-06-07 00:55:00,
2013-06-06 21:00:00,66.6,64.5,29.74,SE,127,2.0,10.0,93,0.00,,,0.08,Wunderground v.1.15,2013-06-07 01:00:00,
2013-06-06 21:05:00,66.5,64.4,29.74,SSE,152,2.0,10.0,93,0.00,,,0.08,Wunderground v.1.15,2013-06-07 01:05:00,
2013-06-06 21:10:00,66.4,64.3,29.74,South,169,2.0,10.0,93,0.00,,,0.08,Wunderground v.1.15,2013-06-07 01:10:00,
2013-06-06 21:15:00,66.4,64.3,29.74,SE,128,2.0,10.0,93,0.00,,,0.08,Wunderground v.1.15,2013-06-07 01:15:00,
2013-06-06 21:20:00,66.2,64.1,29.74,ESE,113,2.0,10.0,93,0.00,,,0.08,Wunderground v.1.15,2013-06-07 01:20:00,
2013-06-06 21:25:00,66.2,64.1,29.74,SE,138,2.0,10.0,93,0.00,,,0.08,Wunderground v.1.15,2013-06-07 01:25:00,
2013-06-06 21:35:00,66.0,63.9,29.74,SE,134,1.0,10.0,93,0.00,,,0.08,Wunderground v.1.15,2013-06-07 01:35:00,
2013-06-06 21:40:00,66.0,63.9,29.74,SE,127,1.0,10.0,93,0.00,,,0.08,Wunderground v.1.15,2013-06-07 01:40:00,
2013-06-06 21:45:00,65.9,63.8,29.74,SE,132,1.0,10.0,93,0.00,,,0.08,Wunderground v.1.15,2013-06-07 01:45:00,
2013-06-06 21:50:00,65.8,63.7,29.74,SE,127,2.0,10.0,93,0.00,,,0.08,Wunderground v.1.15,2013-06-07 01:50:00,
2013-06-06 21:55:00,65.7,63.6,29.74,SE,136,2.0,10.0,93,0.00,,,0.08,Wunderground v.1.15,2013-06-07 01:55:00,
2013-06-06 22:00:00,65.6,63.8,29.75,ESE,102,2.0,10.0,94,0.00,,,0.08,Wunderground v.1.15,2013-06-07 02:00:00,
2013-06-06 22:05:00,65.5,63.7,29.75,South,170,2.0,10.0,94,0.00,,,0.08,Wunderground v.1.15,2013-06-07 02:05:00,
2013-06-06 22:10:00,65.5,63.7,29.75,SW,215,1.0,10.0,94,0.00,,,0.08,Wunderground v.1.15,2013-06-07 02:10:00,
2013-06-06 22:15:00,65.4,63.6,29.75,SSE,163,1.0,10.0,94,0.00,,,0.08,Wunderground v.1.15,2013-06-07 02:15:00,
2013-06-06 22:20:00,65.4,63.6,29.75,SE,139,2.0,10.0,94,0.00,,,0.08,Wunderground v.1.15,2013-06-07 02:20:00,
2013-06-06 22:25:00,65.3,63.5,29.75,ESE,113,2.0,10.0,94,0.00,,,0.08,Wunderground v.1.15,2013-06-07 02:25:00,
2013-06-06 22:30:00,65.3,63.5,29.75,SSE,156,2.0,10.0,94,0.00,,,0.08,Wunderground v.1.15,2013-06-07 02:30:00,
2013-06-06 22:35:00,65.2,63.4,29.75,SE,142,2.0,10.0,94,0.00,,,0.08,Wunderground v.1.15,2013-06-07 02:35:00,
2013-06-06 22:40:00,65.1,63.3,29.75,SE,130,1.0,10.0,94,0.00,,,0.08,Wunderground v.1.15,2013-06-07 02:40:00,
2013-06-06 22:45:00,65.1,63.3,29.75,SW,219,1.0,10.0,94,0.00,,,0.08,Wunderground v.1.15,2013-06-07 02:45:00,
2013-06-06 22:50:00,65.1,63.3,29.75,SE,124,1.0,10.0,94,0.00,,,0.08,Wunderground v.1.15,2013-06-07 02:50:00,
2013-06-06 22:55:00,65.0,63.2,29.75,ESE,121,1.0,10.0,94,0.00,,,0.08,Wunderground v.1.15,2013-06-07 02:55:00,
2013-06-06 23:00:00,65.0,63.2,29.75,SSE,160,1.0,10.0,94,0.00,,,0.08,Wunderground v.1.15,2013-06-07 03:00:00,
2013-06-06 23:05:00,65.0,63.2,29.75,SE,136,1.0,10.0,94,0.00,,,0.08,Wunderground v.1.15,2013-06-07 03:05:00,
2013-06-06 23:10:00,65.0,63.5,29.75,SE,136,1.0,10.0,95,0.00,,,0.08,Wunderground v.1.15,2013-06-07 03:10:00,
2013-06-06 23:15:00,65.0,63.5,29.75,SE,141,2.0,10.0,95,0.00,,,0.08,Wunderground v.1.15,2013-06-07 03:15:00,
2013-06-06 23:20:00,64.9,63.4,29.75,SSE,167,1.0,10.0,95,0.00,,,0.08,Wunderground v.1.15,2013-06-07 03:20:00,
2013-06-06 23:25:00,64.9,63.4,29.75,South,180,1.0,10.0,95,0.00,,,0.08,Wunderground v.1.15,2013-06-07 03:25:00,
2013-06-06 23:35:00,64.9,63.4,29.75,SE,130,1.0,10.0,95,0.00,,,0.08,Wunderground v.1.15,2013-06-07 03:35:00,
2013-06-06 23:40:00,64.8,63.3,29.75,SE,133,2.0,10.0,95,0.00,,,0.08,Wunderground v.1.15,2013-06-07 03:40:00,
2013-06-06 23:45:00,64.7,63.2,29.75,SE,126,1.0,10.0,95,0.00,,,0.08,Wunderground v.1.15,2013-06-07 03:45:00,
2013-06-06 23:50:00,64.7,63.2,29.75,SE,129,1.0,10.0,95,0.00,,,0.08,Wunderground v.1.15,2013-06-07 03:50:00,
2013-06-06 23:55:00,64.7,63.2,29.75,SSE,166,2.0,10.0,95,0.00,,,0.08,Wunderground v.1.15,2013-06-07 03:55:00,